When you browse on this site, cookies collect data to enhance your experience and personalize the content and advertising you see.
Visit our Privacy Policy to learn more. By continuing to use the site, you agree to this use of cookies and data.
  • In Czech Republic
  • List of Countries
  • For 7 days
  • Water Temperature
  • Weather Map
  • Weather Widgets
  • user-avatar
    Login

    Hourly Weather La Crau

    Today, 5 June, Friday

    Time Temperature Precipitation Wind Pressure Humidity
    00:00 +17°C° 0 mm 9 mps 746 mmHg 66%
    01:00 +17°C° 0 mm 9 mps 745 mmHg 65%
    02:00 +16°C° 0 mm 10 mps 745 mmHg 65%
    03:00 +16°C° 0 mm 10 mps 745 mmHg 64%
    04:00 +16°C° 0 mm 11 mps 745 mmHg 62%
    05:00 +17°C° 0 mm 12 mps 746 mmHg 60%
    06:00 +17°C° 0 mm 11 mps 747 mmHg 58%
    07:00 +18°C° 0 mm 12 mps 747 mmHg 55%
    08:00 +19°C° 0 mm 12 mps 747 mmHg 52%
    09:00 +20°C° 0 mm 13 mps 747 mmHg 49%
    10:00 +22°C° 0 mm 13 mps 748 mmHg 46%
    11:00 +23°C° 0 mm 13 mps 748 mmHg 43%
    12:00 +23°C° 0 mm 13 mps 748 mmHg 39%
    13:00 +24°C° 0 mm 13 mps 748 mmHg 40%
    14:00 +24°C° 0 mm 13 mps 748 mmHg 40%
    15:00 +26°C° 0 mm 13 mps 748 mmHg 41%
    16:00 +24°C° 0 mm 12 mps 749 mmHg 44%
    17:00 +23°C° 0 mm 12 mps 749 mmHg 47%
    18:00 +22°C° 0 mm 11 mps 749 mmHg 50%
    19:00 +22°C° 0 mm 11 mps 750 mmHg 52%
    20:00 +21°C° 0 mm 10 mps 750 mmHg 55%
    21:00 +19°C° 0 mm 10 mps 751 mmHg 57%
    22:00 +19°C° 0 mm 10 mps 751 mmHg 59%
    23:00 +18°C° 0 mm 9 mps 751 mmHg 61%

    Tomorrow, 6 June, Saturday

    Time Temperature Precipitation Wind Pressure Humidity
    00:00 +18°C° 0 mm 9 mps 752 mmHg 64%
    01:00 +17°C° 0 mm 9 mps 752 mmHg 66%
    02:00 +17°C° 0 mm 9 mps 752 mmHg 69%
    03:00 +17°C° 0 mm 9 mps 752 mmHg 71%
    04:00 +17°C° 0 mm 8 mps 752 mmHg 69%
    05:00 +18°C° 0 mm 8 mps 752 mmHg 67%
    06:00 +18°C° 0 mm 7 mps 752 mmHg 65%
    07:00 +21°C° 0 mm 7 mps 752 mmHg 59%
    08:00 +23°C° 0 mm 7 mps 752 mmHg 53%
    09:00 +24°C° 0 mm 7 mps 752 mmHg 48%
    10:00 +26°C° 0 mm 8 mps 752 mmHg 46%
    11:00 +27°C° 0 mm 8 mps 752 mmHg 44%
    12:00 +28°C° 0 mm 8 mps 752 mmHg 43%
    13:00 +28°C° 0 mm 8 mps 752 mmHg 44%
    14:00 +27°C° 0 mm 8 mps 752 mmHg 45%
    15:00 +27°C° 0 mm 7 mps 752 mmHg 46%
    16:00 +26°C° 0 mm 7 mps 751 mmHg 51%
    17:00 +24°C° 0 mm 6 mps 751 mmHg 55%
    18:00 +23°C° 0 mm 5 mps 751 mmHg 59%
    19:00 +22°C° 0 mm 5 mps 751 mmHg 64%
    20:00 +21°C° 0 mm 4 mps 751 mmHg 69%
    21:00 +20°C° 0 mm 4 mps 752 mmHg 73%
    22:00 +20°C° 0 mm 4 mps 751 mmHg 76%
    23:00 +19°C° 0 mm 4 mps 751 mmHg 79%

    Day after tomorrow, 7 June, Sunday

    Time Temperature Precipitation Wind Pressure Humidity
    00:00 +19°C° 0 mm 3 mps 751 mmHg 82%
    01:00 +19°C° 0.2 mm 3 mps 751 mmHg 84%
    02:00 +19°C° 0.2 mm 3 mps 750 mmHg 86%
    03:00 +19°C° 0.2 mm 3 mps 750 mmHg 88%
    04:00 +19°C° 0 mm 2 mps 750 mmHg 85%
    05:00 +20°C° 0 mm 2 mps 750 mmHg 82%
    06:00 +20°C° 0 mm 2 mps 750 mmHg 79%
    07:00 +21°C° 0 mm 2 mps 750 mmHg 71%
    08:00 +24°C° 0 mm 3 mps 751 mmHg 63%
    09:00 +25°C° 0 mm 3 mps 751 mmHg 54%
    10:00 +26°C° 0.1 mm 4 mps 751 mmHg 54%
    11:00 +26°C° 0.1 mm 5 mps 751 mmHg 54%
    12:00 +26°C° 0.1 mm 6 mps 751 mmHg 54%
    13:00 +26°C° 0.1 mm 7 mps 751 mmHg 51%
    14:00 +27°C° 0.1 mm 7 mps 751 mmHg 48%
    15:00 +27°C° 0.1 mm 7 mps 751 mmHg 45%
    16:00 +26°C° 0 mm 7 mps 751 mmHg 48%
    17:00 +24°C° 0 mm 7 mps 751 mmHg 51%
    18:00 +23°C° 0 mm 7 mps 751 mmHg 54%
    19:00 +22°C° 0 mm 6 mps 751 mmHg 57%
    20:00 +21°C° 0 mm 6 mps 751 mmHg 61%
    21:00 +20°C° 0 mm 5 mps 752 mmHg 64%
    22:00 +19°C° 0 mm 5 mps 752 mmHg 63%
    23:00 +19°C° 0 mm 5 mps 752 mmHg 62%

    8 June, Monday

    Time Temperature Precipitation Wind Pressure Humidity
    00:00 +17°C° 0 mm 5 mps 752 mmHg 61%
    01:00 +17°C° 0 mm 5 mps 751 mmHg 62%
    02:00 +16°C° 0 mm 5 mps 751 mmHg 63%
    03:00 +16°C° 0 mm 5 mps 751 mmHg 64%
    04:00 +16°C° 0 mm 5 mps 751 mmHg 63%
    05:00 +17°C° 0 mm 5 mps 751 mmHg 61%
    06:00 +19°C° 0 mm 4 mps 752 mmHg 60%
    07:00 +21°C° 0 mm 4 mps 752 mmHg 51%
    08:00 +23°C° 0 mm 4 mps 752 mmHg 42%
    09:00 +26°C° 0 mm 5 mps 752 mmHg 33%
    10:00 +26°C° 0 mm 5 mps 752 mmHg 31%
    11:00 +27°C° 0 mm 6 mps 752 mmHg 30%
    12:00 +28°C° 0 mm 6 mps 752 mmHg 28%
    13:00 +28°C° 0 mm 7 mps 752 mmHg 29%
    14:00 +27°C° 0 mm 7 mps 752 mmHg 30%
    15:00 +27°C° 0 mm 8 mps 752 mmHg 31%
    16:00 +26°C° 0 mm 7 mps 752 mmHg 36%
    17:00 +24°C° 0 mm 7 mps 752 mmHg 40%
    18:00 +23°C° 0 mm 6 mps 752 mmHg 45%
    19:00 +22°C° 0 mm 6 mps 753 mmHg 49%
    20:00 +21°C° 0 mm 5 mps 753 mmHg 52%
    21:00 +20°C° 0 mm 5 mps 753 mmHg 56%
    22:00 +19°C° 0 mm 4 mps 753 mmHg 58%
    23:00 +19°C° 0 mm 4 mps 753 mmHg 59%

    9 June, Tuesday

    Time Temperature Precipitation Wind Pressure Humidity
    00:00 +18°C° 0 mm 4 mps 753 mmHg 60%
    01:00 +18°C° 0 mm 4 mps 753 mmHg 63%
    02:00 +17°C° 0 mm 4 mps 753 mmHg 65%
    03:00 +17°C° 0 mm 4 mps 752 mmHg 68%
    04:00 +18°C° 0 mm 4 mps 753 mmHg 67%
    05:00 +18°C° 0 mm 4 mps 753 mmHg 66%
    06:00 +19°C° 0 mm 4 mps 753 mmHg 66%
    07:00 +21°C° 0 mm 4 mps 753 mmHg 59%
    08:00 +23°C° 0 mm 4 mps 753 mmHg 53%
    09:00 +26°C° 0 mm 4 mps 753 mmHg 46%
    10:00 +26°C° 0.1 mm 5 mps 753 mmHg 46%
    11:00 +26°C° 0.1 mm 5 mps 753 mmHg 46%
    12:00 +26°C° 0.1 mm 6 mps 753 mmHg 46%
    13:00 +26°C° 0.6 mm 6 mps 753 mmHg 49%
    14:00 +26°C° 0.6 mm 6 mps 753 mmHg 52%
    15:00 +24°C° 0.6 mm 7 mps 753 mmHg 55%
    16:00 +23°C° 0.4 mm 6 mps 753 mmHg 59%
    17:00 +23°C° 0.4 mm 6 mps 753 mmHg 63%
    18:00 +22°C° 0.4 mm 5 mps 753 mmHg 67%
    19:00 +21°C° 0.1 mm 5 mps 753 mmHg 71%
    20:00 +20°C° 0.1 mm 4 mps 754 mmHg 75%
    21:00 +18°C° 0.1 mm 3 mps 754 mmHg 79%
    22:00 +18°C° 0 mm 3 mps 754 mmHg 81%
    23:00 +18°C° 0 mm 3 mps 754 mmHg 82%

    10 June, Wednesday

    Time Temperature Precipitation Wind Pressure Humidity
    00:00 +17°C° 0 mm 3 mps 754 mmHg 84%
    01:00 +17°C° 0 mm 3 mps 754 mmHg 85%
    02:00 +17°C° 0 mm 3 mps 754 mmHg 85%
    03:00 +16°C° 0 mm 2 mps 754 mmHg 85%
    04:00 +17°C° 0 mm 2 mps 754 mmHg 83%
    05:00 +18°C° 0 mm 2 mps 754 mmHg 80%
    06:00 +19°C° 0 mm 2 mps 754 mmHg 78%
    07:00 +20°C° 0 mm 3 mps 754 mmHg 69%
    08:00 +22°C° 0 mm 3 mps 754 mmHg 61%
    09:00 +25°C° 0 mm 3 mps 755 mmHg 53%
    10:00 +25°C° 0.2 mm 4 mps 755 mmHg 53%
    11:00 +25°C° 0.2 mm 5 mps 754 mmHg 54%
    12:00 +24°C° 0.2 mm 6 mps 754 mmHg 54%
    13:00 +24°C° 0.5 mm 7 mps 754 mmHg 54%
    14:00 +24°C° 0.5 mm 7 mps 754 mmHg 55%
    15:00 +24°C° 0.5 mm 7 mps 754 mmHg 56%
    16:00 +23°C° 0.3 mm 7 mps 754 mmHg 59%
    17:00 +22°C° 0.3 mm 7 mps 754 mmHg 63%
    18:00 +21°C° 0.3 mm 6 mps 754 mmHg 66%
    19:00 +20°C° 0 mm 6 mps 755 mmHg 69%
    20:00 +19°C° 0 mm 5 mps 755 mmHg 73%
    21:00 +18°C° 0 mm 4 mps 755 mmHg 76%
    22:00 +18°C° 0 mm 4 mps 755 mmHg 78%
    23:00 +17°C° 0 mm 4 mps 755 mmHg 80%
    Show more